Tracking 30995 objects as of 5-Jul-2025
HD Live streaming from Space Station
objects crossing your sky now

STARLINK-3511

Track STARLINK-3511 now!
10-day predictions
STARLINK-3511 is classified as:


NORAD ID: 51752
Int'l Code: 2022-016AQ
Perigee: 546.0 km
Apogee: 547.8 km
Inclination: 53.2 °
Period: 95.4 minutes
Semi major axis: 6917 km
RCS: Unknown
Launch date: February 21, 2022
Source: United States (US)
Launch site: AIR FORCE EASTERN TEST RANGE (AFETR)
Your satellite tracking list
Your tracking list is empty




NASA's NSSDC Master Catalog

Two Line Element Set (TLE):
1 51752U 22016AQ  25186.61533429  .00000329  00000-0  38757-4 0  9994
2 51752  53.2190 338.2152 0001301  95.3000 264.8141 15.08847789186400
Source of the keplerian elements: AFSPC